Preview of NWS' New Version of Forecast
This preview is not operational and should not be used for support decisions.

Regional Weather Roundup (RWR)

Issued by National Weather Service (NWS)

                            
000
ASPQ40 PGUM 242310
RWRPQ 
WEATHER ROUNDUP FOR THE MARIANAS AND MICRONESIA
NATIONAL WEATHER SERVICE TIYAN GU
900 AM CHST THU APR 25 2019

GUZ001>004-250000-
MARIANA ISLANDS-
  
CITY           SKY/WX    TMP DP  RH WIND       PRES   REMARKS
GUAM AIRPORT   PTSUNNY   81  75  83 E15       29.92S                  
ANDERSEN AFB   PTSUNNY   79  72  78 E13       29.93R                  
ROTA AIRPORT   PTSUNNY   81  72  74 E16       29.91S                  
TINIAN AP      MOSUNNY   84  73  70 E21       29.91S HX  91           
SAIPAN AP      MOSUNNY   86  73  66 E23       29.92S HX  93           

$$

PMZ161-250000-
REPUBLIC OF PALAU-
  
CITY           SKY/WX    TMP DP  RH WIND       PRES   REMARKS
KOROR AP       PTSUNNY   82  77  83 NE13G21   29.81  HX  91           
KOROR WSO      NOT AVBL                                               

$$

PMZ171>174-250000-
FEDERATED STATES OF MICRONESIA-
  
CITY           SKY/WX    TMP DP  RH WIND       PRES   REMARKS
YAP AIRPORT    PTSUNNY   84  77  79 E13       29.84  HX  94           
CHUUK AP       CLOUDY    86  79  79 NE14G25   29.80  HX  99           
POHNPEI AP     CLOUDY    81  75  83 E13       29.82                   
POHNPEI WSO    CLOUDY    84  75  74 E9        29.84  HX  92           
KOSRAE AP      CLOUDY    84  77  79 E14       29.80F HX  94           

$$

PMZ181-250000-
REPUBLIC OF THE MARSHALL ISLANDS-
  
CITY           SKY/WX    TMP DP  RH WIND       PRES   REMARKS
KWAJALEIN AP   NOT AVBL                                               
MAJURO AP      PTSUNNY   86  77  74 MISG      29.84S HX  97           
MAJURO WSO     CLOUDY    84  75  74 E17       29.82  HX  92           

$$